Weather Roundup
Issued by NWS Chicago, IL

Home | Current Version | Previous Version | Text Only | Print | Product List | Glossary On
Versions: 1 2 3 4 5 6 7 8 9 10 11 12 13 14 15 16 17 18 19 20 21 22 23 24 25 26 27 28 29 30 31 32 33 34 35 36 37 38 39 40 41 42 43 44 45 46 47 48 49 50
000
NZUS59 KLOT 011910
HRRLOT

CHICAGO AREA WEATHER ROUNDUP
NATIONAL WEATHER SERVICE CHICAGO/ROMEOVILLE IL
200 PM CDT WED OCT 01 2014

NOTE: "FAIR" INDICATES FEW OR NO CLOUDS BELOW 12,000 FEET WITH NO
SIGNIFICANT WEATHER AND/OR OBSTRUCTIONS TO VISIBILITY.

* THESE STATIONS ARE NOT UNDER NWS QUALITY CONTROL. THEY ALSO MAY NOT
  REPORT WEATHER SUCH AS PRECIPITATION OR FOG.

ILZ005-006-012>014-019>023-012000-
NORTHEAST ILLINOIS

CITY           SKY/WX    TMP DP  RH WIND       PRES   REMARKS
OHARE          PTSUNNY   68  50  52 SE12      29.94F
MIDWAY         PTSUNNY   70  52  52 VRB7      29.95F
AURORA         MOSUNNY   71  52  50 SE13      29.93F
LANSING*       SUNNY     68  53  58 S8        29.97F
JOLIET*        MOSUNNY   71  53  53 SE10      29.93F
WAUKEGAN       NOT AVBL
DUPAGE AIRPORT MOSUNNY   70  52  52 SE10      29.93F
WHEELING       SUNNY     68  51  54 E9        29.96F
MORRIS*        MOSUNNY   73  56  55 SE10      29.91F
LEWIS AIRPORT* MOSUNNY   71  52  51 SE10      29.93F
NORTHERLY IS     N/A     63  52  67 E12         N/A
$$

WIZ051-052-058>065-066-070>072-012000-
SOUTHEAST WISCONSIN

CITY           SKY/WX    TMP DP  RH WIND       PRES   REMARKS
MILWAUKEE      PTSUNNY   61  51  70 SE20      29.97F
KENOSHA*       SUNNY     63  52  67 SE14      29.97F
RACINE*        PTSUNNY   61  50  67 SE15G22   29.99F
BURLINGTON     MOSUNNY   66  51  58 SE9       29.94F
WAUKESHA       MOSUNNY   63  48  59 E12G23    29.95F
WEST BEND      SUNNY     63  48  59 SE14      29.95F
$$

INZ001>003-010>013-019-020-012000-
NORTHWEST INDIANA

CITY           SKY/WX    TMP DP  RH WIND       PRES   REMARKS
GARY*          MOSUNNY   70  52  52 SE9       29.97F
MICHIGAN CITY* NOT AVBL
RENSSELAER*    NOT AVBL
VALPARAISO     SUNNY     69  50  50 E10       29.98F
$$

LMZ740>746-012000-
SOUTHERN LAKE MICHIGAN

STATION/POSITION TIME  SKY/WX   TEMP WIND        PRES    VSBY
                                AIR  DIR/SP/G
                 (UTC)          (F)  (DEG/KT/KT) (MB)    (MI)
HARRISON CRIB    1900            60  110/ 15/ 16   N/A
BURNHAM HARBOR   1900            63  100/ 11/ 12   N/A
CALUMET HARBOR   1900            64   70/  8/ 12 1013.6F
BURNS HARBOR     NOT AVBL
MICHIGAN CITY    1900            65  110/  4/  7   N/A
$$

ABBREVIATIONS USED IN REMARKS
   TC - TEMPERATURE IN CELSIUS
  WCI - WIND CHILL INDEX
   HX - HEAT INDEX
  VSB - VISIBILITY
$$



USA.gov is the U.S. government's official web portal to all federal, state and local government web resources and services.